GFSNE_850_dewp_171.txt.gz
Dewpoint
-6 -6 -6 -6 -6 -6 -5 -4 -4 -3 -3 -2 -2 -2 -1 -1 1 6 7 7 10 9 8 8 7 6 7 8 9 9 9 9 9 8 6 4 -6 -10
-7 -7 -7 -7 -6 -6 -6 -5 -5 -4 -4 -3 -3 -3 -2 -2 -2 1 6 6 10 8 7 8 8 7 8 8 6 10 10 9 9 9 9 7 6 -2
-8 -7 -7 -7 -7 -7 -6 -6 -5 -5 -4 -4 -4 -4 -4 -3 -3 -2 2 6 8 8 8 9 8 8 8 8 8 8 9 10 9 9 9 9 8 7
-8 -8 -8 -8 -8 -7 -7 -7 -7 -7 -6 -5 -5 -4 -5 -3 -3 -0 -1 5 9 10 10 10 10 9 9 10 9 9 7 8 10 10 9 9 9 9
-9 -9 -9 -8 -8 -8 -8 -8 -8 -8 -7 -6 -6 -5 -4 -3 -2 -0 -0 5 8 8 10 10 9 8 9 10 10 9 8 8 9 10 10 9 9 9
-9 -9 -9 -9 -9 -9 -9 -9 -9 -9 -8 -8 -7 -6 -5 -4 -4 1 1 3 6 9 10 9 9 8 8 9 9 10 10 9 9 9 10 10 9 10
-9 -9 -9 -9 -9 -10 -10 -10 -10 -9 -9 -9 -8 -7 -6 -5 -4 0 4 2 6 9 10 9 10 9 9 10 10 9 9 10 10 9 9 8 10 9
-9 -10 -10 -10 -10 -11 -11 -11 -11 -10 -10 -9 -9 -8 -7 -6 -5 -3 2 6 6 8 9 10 10 8 8 9 8 10 9 10 9 9 8 8 9 10
-11 -11 -10 -11 -11 -11 -12 -12 -11 -10 -10 -10 -10 -9 -8 -7 -7 -5 -1 4 6 9 9 9 9 8 8 9 9 9 9 9 10 9 9 9 10 9
-11 -11 -11 -11 -11 -12 -12 -12 -11 -11 -11 -10 -10 -9 -8 -7 -7 -6 -2 3 4 6 9 9 9 9 9 9 8 8 9 9 9 8 9 9 9 10
-12 -11 -11 -11 -12 -13 -13 -12 -12 -12 -11 -10 -9 -9 -8 -7 -6 -5 -1 1 5 8 9 9 9 9 8 10 9 9 8 9 9 9 9 9 9 9
-12 -12 -12 -12 -13 -13 -13 -13 -13 -13 -12 -11 -10 -9 -9 -8 -5 -5 -3 1 2 7 9 9 9 9 8 9 9 10 9 8 9 9 9 9 9 10
-13 -13 -13 -13 -13 -13 -12 -13 -13 -13 -12 -12 -11 -11 -10 -9 -7 -5 -5 -2 -1 3 6 8 8 8 9 8 9 9 9 9 9 8 8 8 9 9
-14 -14 -14 -13 -13 -13 -13 -13 -13 -13 -13 -12 -12 -11 -11 -10 -9 -6 -6 -4 -2 0 2 5 7 7 8 8 8 8 8 8 9 9 9 9 9 9
-14 -15 -13 -13 -13 -13 -13 -13 -13 -13 -13 -13 -13 -12 -11 -11 -10 -8 -7 -5 -3 -1 -0 2 5 5 6 7 7 8 8 8 8 8 8 8 8 8
-15 -14 -14 -14 -14 -14 -14 -14 -14 -14 -14 -14 -13 -13 -12 -11 -10 -10 -9 -7 -5 -3 -2 1 3 3 3 4 6 6 6 7 7 7 8 7 8 8
-16 -15 -15 -15 -15 -15 -16 -15 -15 -15 -14 -14 -14 -13 -13 -12 -11 -10 -9 -8 -7 -6 -3 -2 -0 2 3 3 3 3 4 5 5 6 6 6 6 7
-15 -16 -16 -16 -16 -16 -16 -16 -16 -15 -15 -15 -14 -14 -13 -13 -12 -11 -10 -9 -8 -8 -6 -4 -2 -1 0 1 2 3 2 3 4 4 4 4 5 5
-16 -16 -16 -17 -17 -16 -17 -16 -16 -16 -15 -15 -15 -14 -14 -13 -12 -12 -11 -10 -10 -8 -7 -6 -5 -3 -2 -1 -0 0 1 2 2 3 3 3 4 4
-16 -17 -17 -17 -17 -17 -17 -17 -17 -16 -16 -16 -15 -15 -14 -14 -13 -13 -12 -11 -10 -9 -8 -8 -7 -6 -5 -4 -2 -1 -1 0 0 1 2 2 2 3
-17 -17 -18 -18 -18 -18 -18 -18 -17 -17 -17 -16 -16 -15 -15 -14 -13 -13 -12 -11 -11 -10 -9 -8 -8 -8 -7 -5 -4 -3 -2 -2 -1 -1 -0 0 1 1
-18 -18 -18 -18 -18 -18 -18 -18 -18 -18 -17 -17 -16 -16 -16 -15 -14 -13 -13 -12 -11 -11 -10 -9 -9 -8 -7 -6 -5 -4 -4 -3 -2 -2 -1 -1 -0 -0
-19 -19 -19 -19 -19 -19 -19 -18 -18 -18 -18 -18 -17 -17 -16 -16 -14 -14 -13 -13 -12 -11 -10 -10 -8 -8 -7 -7 -6 -5 -5 -5 -4 -3 -3 -3 -2 -2

GFSNE_850_dewp_174.txt.gz
Dewpoint
-7 -7 -7 -7 -7 -7 -7 -6 -6 -5 -5 -5 -4 -4 -3 -4 -4 -4 -5 -4 -4 2 2 5 9 9 9 10 9 9 9 9 9 9 6 5 -1 -4
-8 -8 -8 -8 -8 -7 -7 -7 -7 -6 -5 -5 -5 -6 -6 -6 -6 -4 -5 -5 -4 -4 2 5 6 8 10 10 10 10 10 9 9 9 9 7 5 1
-9 -9 -9 -8 -8 -8 -8 -8 -7 -7 -6 -6 -7 -7 -7 -7 -8 -7 -6 -6 -4 -3 -4 1 4 9 7 11 10 10 10 9 9 9 9 9 8 6
-10 -10 -9 -9 -9 -9 -9 -9 -8 -8 -8 -8 -8 -9 -8 -8 -7 -7 -5 -4 -4 -4 -3 -3 6 7 8 10 10 8 8 9 7 7 7 8 9 8
-11 -9 -9 -10 -10 -10 -10 -9 -9 -9 -10 -9 -9 -9 -9 -8 -8 -7 -6 -5 -6 0 0 -1 2 8 8 7 9 10 9 9 9 8 7 8 9 9
-11 -9 -9 -10 -10 -10 -10 -11 -11 -11 -11 -11 -10 -9 -9 -8 -8 -7 -7 -6 -6 -1 3 4 1 7 6 5 10 10 10 10 9 9 9 9 9 9
-11 -10 -11 -10 -10 -10 -11 -11 -12 -12 -12 -12 -10 -10 -10 -9 -9 -8 -8 -7 -7 -5 2 4 5 6 8 8 9 10 10 10 10 10 10 10 9 9
-11 -12 -12 -11 -10 -11 -12 -12 -12 -12 -12 -12 -11 -11 -10 -11 -10 -9 -8 -8 -7 -5 0 4 5 5 6 8 9 9 9 9 10 10 10 10 10 9
-13 -12 -12 -12 -11 -11 -12 -13 -13 -12 -12 -12 -12 -12 -11 -11 -9 -9 -8 -8 -8 -7 -5 1 5 6 9 9 8 8 9 8 8 9 9 9 10 10
-14 -13 -13 -12 -11 -12 -13 -13 -13 -13 -12 -12 -12 -12 -11 -10 -9 -9 -9 -8 -7 -6 -3 -2 4 6 8 8 8 9 8 8 9 9 9 9 9 10
-14 -13 -12 -12 -13 -13 -13 -13 -13 -13 -14 -13 -12 -12 -11 -10 -9 -9 -9 -8 -7 -6 -0 1 3 4 8 7 9 8 9 8 9 9 9 9 9 9
-14 -14 -13 -13 -13 -13 -13 -13 -12 -13 -13 -13 -13 -13 -12 -11 -10 -10 -9 -9 -7 -7 -1 -0 5 5 7 8 9 9 9 10 9 9 8 9 9 9
-15 -15 -14 -14 -13 -13 -13 -13 -13 -13 -13 -14 -14 -14 -13 -12 -11 -10 -9 -8 -8 -7 -4 -3 3 5 7 8 9 9 9 9 9 9 9 9 9 9
-15 -15 -15 -14 -13 -14 -14 -14 -14 -14 -14 -14 -13 -14 -13 -12 -11 -10 -9 -8 -6 -6 -5 -3 1 4 4 8 8 9 9 9 9 9 9 9 9 9
-15 -15 -15 -14 -14 -15 -14 -14 -15 -15 -15 -15 -14 -14 -13 -13 -12 -10 -10 -9 -6 -5 -5 -3 1 2 4 7 8 8 8 8 9 9 9 8 9 9
-16 -16 -16 -16 -17 -17 -16 -16 -16 -16 -15 -15 -15 -14 -14 -14 -12 -11 -11 -10 -9 -6 -4 -2 -1 0 1 8 8 8 8 8 8 8 8 8 8 8
-16 -16 -17 -17 -17 -17 -17 -17 -17 -16 -16 -15 -15 -15 -14 -14 -13 -12 -11 -11 -9 -8 -7 -4 -2 -1 0 3 6 5 6 7 7 7 7 7 7 7
-17 -17 -17 -17 -17 -17 -17 -17 -17 -17 -16 -16 -16 -16 -15 -15 -14 -13 -12 -11 -10 -9 -9 -7 -4 -2 -1 -0 2 3 3 4 4 4 4 6 6 6
-18 -18 -18 -17 -18 -17 -18 -18 -18 -17 -17 -16 -16 -16 -16 -16 -14 -14 -13 -12 -11 -10 -9 -8 -7 -5 -4 -3 -1 1 2 3 3 3 4 4 5 5
-18 -18 -18 -18 -18 -18 -18 -18 -18 -18 -18 -17 -17 -17 -17 -16 -15 -14 -13 -12 -12 -11 -10 -9 -8 -8 -7 -6 -4 -3 -1 1 2 2 3 3 3 4
-18 -18 -18 -18 -18 -19 -19 -19 -18 -18 -18 -18 -18 -18 -17 -17 -16 -15 -14 -13 -12 -11 -11 -10 -8 -8 -7 -5 -4 -4 -2 -1 0 0 1 1 2 2
-19 -19 -19 -19 -19 -19 -19 -19 -19 -19 -19 -19 -18 -18 -18 -17 -16 -15 -14 -13 -13 -12 -11 -10 -8 -7 -7 -6 -5 -4 -4 -3 -2 -1 -1 -0 0 1
-19 -19 -20 -19 -19 -19 -20 -20 -19 -19 -19 -19 -19 -18 -17 -17 -16 -15 -15 -14 -13 -12 -12 -10 -9 -8 -7 -7 -6 -5 -5 -5 -4 -3 -2 -1 -1 -0

GFSNE_850_dewp_180.txt.gz
Dewpoint
-18 -19 -15 -13 -11 -9 -9 -10 -9 -8 -9 -10 -9 -10 -14 -15 -16 -16 -16 -16 -15 -14 -10 -9 -8 -7 -6 -6 -3 7 7 5 7 10 9 7 5 3
-20 -20 -15 -12 -11 -10 -9 -11 -10 -11 -9 -9 -12 -13 -15 -17 -17 -16 -16 -16 -15 -14 -12 -9 -9 -8 -6 -5 -5 1 7 6 6 8 10 8 6 4
-22 -19 -15 -12 -10 -9 -10 -11 -10 -10 -11 -12 -13 -15 -16 -16 -17 -16 -16 -16 -15 -15 -12 -10 -9 -9 -7 -6 -5 -4 2 7 7 7 10 10 8 6
-21 -19 -15 -11 -10 -12 -12 -10 -11 -11 -11 -13 -12 -14 -14 -14 -15 -16 -16 -15 -15 -14 -12 -10 -10 -9 -8 -7 -6 -4 -3 4 7 7 8 9 9 7
-20 -18 -16 -15 -15 -12 -11 -11 -10 -11 -13 -12 -13 -13 -12 -12 -14 -15 -15 -15 -14 -13 -12 -11 -10 -9 -8 -8 -7 -4 -4 -2 2 5 6 8 10 9
-20 -19 -18 -18 -13 -12 -12 -11 -11 -12 -13 -13 -13 -13 -12 -12 -13 -12 -14 -14 -13 -13 -13 -10 -10 -10 -10 -8 -6 -5 -3 -3 1 6 6 6 9 10
-21 -20 -20 -17 -13 -13 -12 -12 -13 -13 -12 -13 -13 -13 -13 -13 -13 -13 -13 -12 -12 -12 -12 -11 -11 -11 -10 -9 -8 -4 -0 -1 1 5 7 6 7 10
-22 -21 -20 -19 -17 -15 -15 -14 -13 -13 -13 -14 -14 -13 -13 -14 -13 -13 -13 -12 -12 -12 -12 -12 -12 -11 -11 -10 -8 -5 -0 2 -0 4 8 7 6 8
-21 -20 -20 -19 -17 -17 -15 -14 -13 -15 -16 -16 -13 -13 -14 -14 -14 -14 -13 -13 -12 -12 -13 -11 -12 -12 -10 -8 -5 -5 0 3 1 4 7 8 8 9
-21 -20 -19 -16 -16 -14 -13 -15 -16 -17 -16 -14 -14 -14 -14 -14 -14 -14 -13 -13 -13 -13 -13 -11 -12 -10 -10 -9 -7 -4 -1 3 5 4 6 8 8 8
-19 -20 -16 -15 -14 -14 -14 -15 -16 -17 -15 -16 -16 -16 -15 -15 -15 -14 -14 -13 -13 -13 -13 -11 -10 -10 -10 -9 -7 1 -1 2 4 6 7 8 8 6
-18 -19 -16 -15 -14 -14 -15 -15 -16 -15 -16 -18 -18 -18 -18 -17 -17 -15 -14 -14 -14 -13 -13 -12 -11 -10 -9 -9 -7 -5 1 1 4 5 7 8 8 8
-17 -17 -15 -15 -15 -15 -16 -16 -15 -16 -18 -18 -18 -18 -18 -17 -17 -16 -14 -14 -14 -14 -13 -11 -11 -10 -9 -8 -8 -6 -2 3 3 6 7 8 8 9
-16 -16 -16 -16 -16 -17 -17 -16 -16 -19 -18 -18 -17 -18 -17 -17 -17 -16 -15 -14 -13 -13 -12 -11 -11 -10 -9 -9 -8 -7 -4 1 3 5 7 8 8 9
-16 -17 -18 -20 -20 -21 -18 -18 -19 -20 -19 -18 -18 -18 -17 -17 -16 -16 -15 -15 -14 -13 -11 -11 -10 -10 -9 -8 -8 -6 -5 -0 2 4 6 8 9 9
-17 -18 -21 -21 -20 -20 -19 -19 -20 -20 -19 -19 -18 -18 -18 -18 -17 -16 -15 -15 -15 -14 -13 -10 -10 -10 -10 -8 -6 -5 -4 -3 3 4 5 7 8 9
-17 -20 -22 -22 -21 -21 -20 -19 -21 -21 -20 -19 -19 -19 -18 -18 -17 -16 -16 -16 -16 -15 -14 -11 -9 -10 -9 -7 -5 -5 -3 -1 1 2 4 6 7 9
-19 -21 -21 -21 -21 -20 -20 -19 -20 -21 -20 -19 -20 -20 -19 -18 -18 -17 -16 -16 -16 -16 -15 -12 -12 -11 -10 -6 -5 -6 -3 -1 0 2 3 3 7 8
-20 -20 -20 -21 -21 -21 -20 -20 -20 -21 -20 -20 -21 -20 -19 -19 -18 -18 -17 -17 -17 -16 -15 -13 -13 -12 -12 -10 -7 -6 -6 -3 -1 1 2 3 6 8
-20 -20 -20 -21 -21 -21 -21 -21 -21 -21 -21 -21 -21 -21 -20 -19 -19 -18 -18 -18 -17 -16 -15 -12 -12 -12 -12 -11 -8 -6 -6 -3 -1 1 1 2 4 7
-20 -20 -20 -20 -21 -21 -22 -21 -21 -21 -21 -21 -21 -21 -20 -19 -19 -18 -18 -17 -17 -17 -16 -14 -12 -10 -9 -8 -7 -6 -6 -3 -2 -1 0 1 1 2
-20 -20 -20 -20 -21 -21 -22 -21 -22 -22 -22 -22 -22 -21 -20 -20 -19 -19 -18 -18 -18 -17 -15 -13 -11 -10 -9 -8 -7 -6 -6 -4 -3 -3 -2 0 -1 -0
-19 -20 -21 -21 -22 -22 -23 -23 -22 -22 -22 -22 -22 -21 -21 -20 -19 -19 -18 -18 -17 -16 -15 -14 -12 -10 -9 -9 -7 -6 -6 -5 -3 -1 -1 -1 0 3

GFSNE_850_dewp_183.txt.gz
Dewpoint
-23 -27 -23 -19 -15 -12 -10 -9 -11 -9 -9 -12 -10 -16 -19 -19 -21 -20 -18 -18 -18 -17 -17 -16 -15 -11 -9 -9 -7 -6 -6 -1 7 6 5 9 10 9
-25 -28 -25 -20 -16 -14 -9 -10 -14 -10 -10 -10 -12 -15 -17 -19 -20 -20 -20 -18 -18 -18 -17 -17 -16 -14 -10 -9 -9 -7 -6 -6 3 7 7 7 9 9
-25 -27 -25 -22 -20 -18 -17 -16 -12 -10 -10 -11 -12 -13 -16 -17 -18 -18 -19 -18 -18 -18 -18 -17 -16 -15 -11 -9 -9 -9 -7 -6 -6 4 7 6 8 9
-24 -25 -24 -22 -21 -20 -18 -16 -13 -10 -11 -13 -12 -13 -13 -16 -16 -16 -16 -18 -17 -17 -17 -17 -16 -15 -12 -10 -9 -9 -8 -7 -6 -4 7 7 6 7
-22 -24 -23 -22 -21 -17 -16 -14 -11 -12 -14 -15 -13 -12 -13 -14 -15 -14 -16 -16 -17 -16 -17 -16 -16 -14 -11 -10 -10 -9 -9 -8 -6 -5 -1 7 7 7
-23 -24 -23 -22 -17 -14 -13 -13 -15 -15 -14 -13 -13 -13 -13 -14 -13 -14 -14 -16 -16 -16 -16 -15 -15 -15 -14 -12 -11 -11 -10 -9 -7 -6 -5 5 7 7
-24 -24 -23 -22 -19 -15 -16 -15 -13 -13 -13 -13 -14 -14 -14 -13 -15 -14 -14 -14 -15 -14 -14 -15 -15 -15 -14 -12 -12 -11 -10 -9 -8 -6 -5 -4 6 7
-25 -24 -24 -24 -22 -20 -17 -14 -13 -14 -15 -16 -15 -14 -14 -15 -15 -14 -14 -14 -14 -14 -14 -15 -14 -14 -14 -13 -12 -11 -10 -9 -8 -7 -5 -4 -2 6
-25 -23 -24 -22 -20 -18 -15 -14 -15 -17 -17 -17 -14 -14 -16 -15 -15 -15 -15 -15 -14 -14 -14 -14 -15 -15 -14 -13 -13 -12 -11 -9 -6 -6 -6 -4 -4 -1
-25 -24 -23 -22 -18 -14 -14 -15 -16 -17 -17 -15 -15 -16 -16 -15 -15 -15 -15 -15 -15 -15 -15 -14 -15 -14 -14 -13 -13 -12 -11 -8 -6 -4 -5 -4 -3 -3
-23 -23 -21 -19 -15 -14 -14 -15 -17 -17 -16 -17 -18 -18 -17 -16 -16 -16 -16 -16 -16 -16 -16 -15 -13 -13 -13 -13 -12 -9 -6 -5 -3 -2 -3 -3 -0 -2
-18 -21 -20 -16 -15 -15 -15 -16 -17 -16 -17 -20 -20 -20 -19 -19 -18 -17 -17 -17 -17 -16 -16 -15 -14 -14 -12 -12 -10 -12 -11 -10 -5 -3 -1 -1 2 3
-17 -19 -19 -16 -16 -16 -16 -18 -16 -16 -20 -21 -20 -20 -19 -19 -18 -18 -16 -17 -17 -17 -16 -15 -15 -14 -13 -12 -11 -12 -11 -11 -9 -5 0 0 2 4
-17 -18 -18 -17 -18 -19 -21 -17 -17 -20 -21 -21 -20 -20 -20 -19 -19 -18 -16 -16 -15 -16 -14 -14 -15 -14 -13 -12 -11 -12 -11 -11 -9 -6 -1 1 2 4
-17 -18 -19 -22 -24 -25 -24 -19 -19 -21 -21 -21 -20 -20 -21 -20 -19 -18 -17 -17 -16 -15 -14 -13 -14 -14 -13 -13 -12 -11 -10 -10 -7 -6 -3 1 2 4
-18 -21 -23 -25 -27 -26 -25 -23 -21 -21 -21 -21 -20 -21 -21 -20 -19 -19 -17 -17 -17 -16 -15 -13 -13 -14 -14 -13 -12 -10 -9 -8 -6 -5 -3 1 3 4
-18 -22 -24 -26 -25 -24 -24 -23 -22 -22 -22 -21 -21 -21 -21 -20 -20 -19 -18 -18 -18 -17 -16 -14 -13 -14 -13 -13 -12 -10 -7 -6 -6 -6 -3 -0 1 3
-21 -21 -22 -22 -22 -22 -22 -22 -22 -22 -22 -22 -21 -22 -21 -20 -20 -19 -19 -18 -19 -17 -17 -15 -15 -14 -14 -12 -9 -8 -7 -7 -7 -5 -2 -0 1 3
-21 -21 -21 -21 -21 -21 -22 -22 -22 -22 -22 -22 -22 -22 -22 -21 -20 -20 -19 -19 -18 -18 -17 -16 -16 -15 -15 -14 -11 -8 -8 -8 -7 -4 -2 -1 1 3
-20 -20 -20 -21 -21 -21 -22 -22 -23 -23 -22 -22 -22 -23 -22 -21 -21 -20 -19 -19 -19 -18 -17 -16 -15 -15 -16 -15 -13 -10 -7 -7 -7 -4 -3 -2 0 2
-19 -20 -20 -20 -21 -21 -22 -23 -23 -24 -23 -22 -22 -23 -23 -22 -21 -20 -20 -19 -19 -19 -18 -16 -14 -13 -13 -13 -12 -10 -8 -7 -6 -4 -3 -2 -1 0
-19 -19 -20 -20 -20 -21 -22 -24 -25 -24 -23 -22 -23 -23 -23 -22 -21 -20 -20 -19 -19 -18 -17 -16 -13 -13 -12 -13 -12 -9 -7 -7 -6 -5 -3 -2 -1 1
-19 -19 -20 -20 -21 -22 -24 -25 -25 -25 -23 -23 -23 -23 -23 -22 -21 -21 -20 -19 -19 -18 -17 -16 -14 -12 -12 -12 -11 -9 -7 -8 -7 -4 -3 -2 -0 1

GFSNE_850_dewp_186.txt.gz
Dewpoint
-28 -31 -32 -25 -21 -17 -15 -12 -11 -11 -11 -13 -11 -18 -21 -24 -25 -25 -25 -26 -24 -24 -26 -25 -23 -19 -17 -16 -15 -13 -8 -7 -7 -8 0 5 7 7
-30 -33 -30 -26 -25 -24 -24 -22 -19 -14 -10 -11 -11 -16 -21 -22 -22 -22 -24 -24 -24 -23 -22 -24 -24 -22 -19 -17 -15 -15 -12 -9 -7 -7 -7 -2 3 7
-31 -30 -29 -28 -28 -28 -26 -23 -21 -16 -11 -13 -15 -19 -17 -19 -21 -22 -21 -20 -22 -22 -22 -21 -22 -22 -21 -19 -17 -14 -13 -10 -9 -8 -7 -7 2 6
-29 -30 -30 -29 -29 -27 -27 -24 -21 -18 -17 -18 -18 -15 -15 -18 -20 -19 -17 -19 -20 -20 -19 -20 -19 -20 -21 -19 -17 -14 -10 -11 -10 -9 -8 -7 -6 2
-28 -29 -30 -29 -28 -26 -26 -23 -20 -20 -18 -15 -13 -17 -18 -19 -19 -17 -18 -18 -18 -19 -19 -19 -19 -19 -19 -19 -17 -15 -12 -11 -10 -9 -9 -8 -7 -5
-28 -30 -29 -28 -27 -25 -23 -20 -17 -15 -13 -16 -17 -17 -18 -16 -16 -18 -19 -18 -18 -18 -19 -18 -18 -17 -18 -18 -18 -17 -15 -13 -11 -11 -9 -9 -7 -6
-28 -30 -29 -28 -27 -25 -20 -17 -13 -13 -16 -18 -18 -18 -15 -15 -18 -18 -16 -17 -16 -17 -18 -16 -17 -17 -17 -17 -17 -16 -15 -13 -12 -11 -10 -9 -8 -7
-29 -29 -28 -29 -28 -24 -18 -16 -14 -15 -17 -18 -18 -16 -15 -17 -18 -15 -15 -15 -15 -17 -16 -17 -17 -17 -17 -16 -16 -15 -15 -13 -12 -11 -10 -10 -9 -8
-28 -27 -29 -28 -25 -21 -17 -14 -15 -18 -20 -19 -16 -16 -18 -18 -16 -16 -16 -16 -16 -17 -17 -17 -17 -17 -17 -16 -16 -16 -15 -14 -13 -12 -11 -9 -9 -8
-27 -25 -27 -28 -24 -17 -14 -15 -18 -20 -20 -17 -18 -20 -19 -16 -16 -16 -16 -16 -17 -17 -17 -16 -17 -17 -16 -16 -16 -15 -14 -11 -9 -7 -8 -8 -7 -8
-25 -23 -25 -25 -24 -15 -15 -17 -21 -20 -19 -20 -21 -22 -21 -20 -19 -17 -18 -17 -17 -17 -18 -16 -16 -16 -16 -16 -16 -13 -10 -9 -9 -12 -10 -6 -4 -5
-23 -23 -24 -22 -15 -15 -16 -21 -22 -17 -17 -19 -22 -23 -22 -21 -21 -20 -18 -18 -17 -18 -17 -16 -17 -16 -16 -16 -13 -15 -15 -14 -14 -13 -11 -9 -5 -4
-19 -20 -21 -22 -20 -18 -18 -25 -18 -17 -19 -22 -23 -23 -22 -22 -21 -20 -19 -19 -18 -18 -17 -17 -18 -17 -17 -16 -15 -15 -15 -14 -14 -13 -12 -10 -7 -4
-18 -18 -19 -22 -25 -27 -27 -24 -18 -23 -23 -24 -24 -23 -22 -22 -22 -21 -20 -19 -18 -17 -16 -16 -18 -17 -16 -16 -15 -15 -14 -13 -13 -13 -12 -10 -6 -4
-18 -18 -20 -25 -26 -27 -27 -27 -26 -26 -25 -24 -24 -24 -23 -22 -22 -21 -21 -20 -19 -18 -16 -16 -17 -17 -17 -16 -15 -14 -13 -13 -12 -9 -5 -5 -3 -3
-18 -20 -23 -25 -26 -27 -27 -26 -25 -24 -23 -23 -23 -24 -24 -24 -23 -21 -21 -20 -19 -18 -17 -16 -16 -17 -17 -16 -16 -14 -13 -13 -11 -10 -7 -6 -6 -3
-17 -21 -23 -24 -25 -26 -26 -26 -25 -24 -23 -24 -24 -23 -23 -23 -24 -22 -21 -20 -19 -18 -17 -16 -15 -16 -16 -16 -15 -13 -12 -11 -10 -8 -7 -7 -7 -4
-20 -22 -22 -22 -22 -22 -23 -23 -25 -24 -23 -24 -24 -23 -23 -23 -23 -23 -21 -21 -20 -19 -18 -16 -17 -17 -17 -16 -14 -13 -12 -11 -10 -9 -8 -8 -7 -4
-20 -20 -20 -20 -21 -21 -21 -22 -23 -24 -24 -25 -25 -23 -23 -23 -23 -23 -21 -21 -20 -19 -18 -17 -18 -18 -18 -17 -16 -13 -12 -12 -10 -8 -8 -7 -7 -3
-19 -19 -19 -20 -20 -20 -21 -22 -24 -25 -26 -26 -25 -24 -23 -23 -24 -23 -21 -21 -20 -19 -19 -17 -17 -18 -19 -18 -17 -13 -11 -12 -10 -8 -8 -8 -6 -3
-18 -19 -19 -19 -20 -20 -21 -23 -25 -26 -26 -26 -25 -25 -24 -24 -24 -23 -21 -21 -20 -20 -20 -18 -16 -16 -16 -16 -16 -14 -11 -9 -8 -8 -8 -7 -5 -4
-18 -19 -19 -19 -20 -20 -22 -25 -27 -28 -27 -27 -26 -25 -25 -25 -24 -22 -22 -21 -21 -20 -19 -18 -16 -16 -15 -16 -15 -14 -12 -9 -8 -8 -7 -6 -5 -3
-18 -19 -19 -20 -20 -22 -24 -27 -28 -28 -28 -28 -27 -26 -26 -25 -23 -22 -22 -22 -21 -20 -19 -18 -17 -16 -15 -15 -15 -14 -12 -10 -8 -8 -7 -6 -5 -3

GFSNE_850_dewp_192.txt.gz
Dewpoint
-28 -31 -12 -11 -13 -11 -11 -11 -11 -10 -13 -12 -11 -11 -12 -15 -15 -20 -16 -18 -36 -36 -38 -38 -37 -39 -39 -39 -38 -36 -33 -27 -32 -28 -18 -10 -12 -7
-20 -22 -15 -13 -19 -16 -11 -11 -11 -12 -11 -12 -13 -12 -12 -13 -14 -16 -15 -22 -13 -22 -35 -36 -36 -35 -37 -38 -39 -37 -32 -29 -22 -31 -28 -23 -18 -16
-24 -20 -22 -28 -15 -12 -12 -12 -12 -11 -11 -13 -14 -13 -12 -12 -13 -13 -13 -13 -15 -16 -28 -35 -36 -34 -35 -32 -32 -34 -30 -27 -25 -25 -26 -28 -23 -18
-20 -16 -20 -30 -18 -12 -12 -11 -11 -12 -13 -13 -13 -14 -14 -14 -14 -13 -14 -15 -15 -15 -19 -33 -35 -33 -30 -31 -30 -29 -31 -27 -24 -22 -22 -25 -25 -21
-23 -16 -22 -26 -12 -12 -15 -12 -12 -13 -12 -13 -14 -15 -16 -15 -14 -14 -15 -15 -16 -15 -15 -16 -16 -23 -22 -26 -28 -26 -25 -23 -22 -20 -19 -19 -23 -23
-30 -32 -28 -23 -12 -21 -13 -12 -12 -12 -13 -14 -15 -16 -16 -15 -14 -16 -17 -15 -15 -15 -14 -14 -15 -14 -14 -13 -17 -15 -20 -21 -21 -20 -19 -18 -19 -20
-30 -31 -31 -29 -34 -34 -26 -12 -11 -11 -13 -15 -16 -16 -16 -15 -16 -16 -15 -15 -14 -14 -14 -15 -15 -15 -14 -14 -13 -13 -16 -20 -20 -19 -19 -18 -15 -19
-26 -29 -28 -32 -30 -32 -31 -28 -28 -26 -27 -14 -15 -15 -14 -15 -15 -15 -15 -14 -15 -15 -15 -16 -15 -14 -14 -14 -14 -17 -16 -18 -19 -19 -19 -19 -18 -18
-26 -25 -26 -27 -29 -26 -16 -18 -17 -25 -30 -29 -15 -13 -13 -14 -15 -14 -14 -15 -15 -15 -15 -15 -14 -14 -14 -14 -12 -15 -19 -18 -18 -16 -16 -16 -13 -9
-27 -29 -26 -21 -22 -26 -16 -13 -14 -14 -16 -24 -14 -14 -15 -16 -15 -15 -15 -15 -14 -14 -14 -14 -14 -14 -13 -13 -13 -14 -12 -12 -14 -11 -11 -12 -13 -12
-14 -22 -24 -20 -22 -27 -26 -14 -13 -14 -16 -15 -20 -26 -26 -25 -20 -16 -15 -15 -16 -16 -15 -15 -15 -15 -15 -15 -14 -14 -13 -12 -13 -13 -13 -14 -17 -16
-13 -13 -20 -23 -25 -28 -29 -18 -15 -15 -15 -15 -19 -16 -16 -16 -16 -16 -16 -15 -16 -16 -16 -16 -15 -15 -15 -16 -14 -14 -13 -13 -12 -13 -13 -12 -12 -11
-13 -13 -13 -18 -24 -29 -30 -26 -24 -28 -22 -18 -15 -15 -15 -15 -16 -16 -17 -17 -17 -17 -17 -17 -17 -16 -16 -16 -16 -14 -14 -14 -13 -12 -12 -11 -11 -11
-12 -13 -14 -19 -26 -29 -28 -27 -28 -28 -16 -15 -15 -15 -15 -16 -16 -17 -18 -18 -18 -18 -18 -18 -18 -17 -17 -16 -16 -15 -14 -14 -13 -13 -12 -12 -11 -11
-13 -14 -20 -24 -27 -22 -22 -27 -27 -16 -16 -16 -16 -16 -16 -17 -17 -17 -17 -17 -18 -18 -18 -17 -17 -17 -17 -17 -16 -16 -15 -15 -14 -13 -11 -11 -11 -10
-16 -16 -20 -21 -19 -19 -17 -16 -17 -17 -17 -17 -17 -17 -17 -17 -17 -17 -17 -18 -18 -18 -17 -17 -17 -17 -17 -17 -16 -16 -16 -15 -14 -14 -13 -13 -12 -11
-15 -15 -15 -15 -15 -16 -16 -16 -17 -17 -17 -18 -18 -18 -18 -18 -18 -18 -18 -18 -18 -18 -18 -17 -17 -17 -17 -17 -17 -17 -15 -15 -14 -13 -13 -13 -12 -11
-16 -14 -14 -14 -15 -15 -16 -16 -17 -17 -18 -18 -19 -18 -19 -19 -19 -19 -19 -19 -19 -18 -18 -18 -18 -18 -18 -17 -16 -16 -16 -15 -15 -14 -13 -14 -13 -11
-15 -14 -14 -15 -15 -16 -16 -17 -17 -18 -19 -19 -19 -19 -20 -20 -20 -19 -19 -19 -19 -19 -19 -19 -18 -18 -17 -17 -19 -17 -17 -16 -16 -15 -14 -13 -12 -11
-15 -14 -15 -15 -16 -16 -17 -17 -18 -19 -20 -20 -20 -21 -21 -21 -20 -20 -20 -20 -20 -20 -20 -19 -18 -18 -19 -19 -19 -19 -17 -16 -15 -15 -14 -13 -12 -11
-14 -15 -15 -16 -17 -17 -18 -19 -20 -20 -21 -21 -21 -21 -21 -21 -21 -21 -21 -22 -22 -21 -20 -19 -19 -20 -19 -19 -18 -17 -17 -16 -15 -15 -14 -13 -13 -11
-15 -15 -16 -17 -18 -19 -19 -20 -20 -21 -21 -21 -22 -22 -22 -22 -22 -22 -22 -22 -22 -21 -21 -20 -20 -19 -19 -18 -18 -17 -17 -16 -14 -14 -13 -12 -11 -10
-16 -16 -17 -18 -19 -20 -20 -21 -21 -22 -22 -23 -23 -23 -23 -23 -23 -23 -23 -22 -22 -21 -21 -21 -20 -20 -19 -19 -18 -18 -16 -16 -14 -13 -12 -11 -10 -9

GFSNE_850_dewp_195.txt.gz
Dewpoint
-22 -21 -14 -15 -14 -14 -17 -13 -9 -8 -12 -9 -10 -10 -10 -11 -11 -18 -21 -20 -31 -28 -31 -34 -38 -39 -39 -39 -40 -40 -40 -40 -38 -38 -37 -37 -38 -37
-11 -16 -10 -8 -10 -11 -9 -10 -10 -10 -10 -11 -11 -11 -11 -10 -12 -17 -21 -25 -17 -19 -23 -28 -34 -38 -39 -39 -39 -39 -36 -38 -39 -38 -36 -37 -36 -38
-12 -11 -10 -11 -11 -10 -10 -10 -10 -10 -9 -10 -12 -12 -10 -11 -11 -13 -14 -13 -15 -15 -17 -22 -23 -30 -36 -37 -38 -37 -35 -35 -34 -37 -33 -32 -32 -32
-14 -11 -12 -13 -11 -10 -10 -10 -10 -10 -11 -12 -11 -11 -12 -12 -13 -12 -13 -14 -14 -14 -16 -17 -17 -16 -20 -25 -30 -34 -32 -31 -29 -27 -27 -28 -26 -27
-13 -9 -11 -11 -10 -11 -10 -10 -11 -12 -11 -11 -12 -13 -14 -14 -13 -13 -13 -14 -15 -15 -15 -15 -14 -14 -13 -15 -17 -18 -20 -14 -13 -23 -24 -22 -22 -22
-17 -13 -12 -12 -10 -9 -10 -10 -11 -11 -11 -12 -13 -14 -14 -14 -13 -14 -15 -15 -14 -14 -14 -14 -14 -14 -14 -14 -13 -13 -12 -11 -13 -17 -21 -21 -21 -22
-25 -25 -24 -27 -22 -21 -19 -10 -10 -10 -11 -13 -14 -14 -15 -13 -14 -14 -14 -14 -14 -13 -14 -14 -15 -15 -14 -14 -13 -13 -14 -15 -12 -11 -16 -20 -20 -20
-24 -28 -28 -31 -33 -33 -34 -34 -33 -32 -30 -16 -13 -13 -13 -13 -13 -13 -13 -14 -14 -15 -15 -15 -14 -14 -14 -14 -15 -13 -12 -13 -17 -12 -11 -11 -11 -12
-20 -18 -14 -13 -24 -28 -24 -25 -21 -22 -27 -28 -23 -14 -12 -12 -13 -13 -14 -14 -15 -15 -14 -14 -14 -14 -14 -15 -12 -13 -18 -14 -12 -11 -11 -12 -11 -11
-23 -19 -16 -12 -13 -23 -26 -23 -16 -13 -14 -15 -19 -15 -13 -15 -14 -14 -14 -14 -14 -13 -13 -14 -15 -15 -14 -13 -15 -17 -13 -13 -12 -12 -12 -12 -12 -11
-15 -21 -16 -11 -16 -27 -28 -27 -15 -13 -13 -14 -15 -20 -16 -15 -15 -15 -14 -14 -15 -14 -14 -15 -15 -15 -16 -16 -17 -16 -14 -16 -14 -12 -12 -12 -12 -12
-12 -12 -14 -18 -24 -26 -28 -29 -15 -13 -15 -25 -25 -21 -14 -14 -14 -14 -14 -14 -14 -15 -15 -15 -16 -16 -16 -17 -15 -19 -16 -14 -13 -13 -12 -12 -12 -12
-12 -12 -12 -14 -17 -23 -30 -29 -17 -27 -28 -24 -14 -13 -13 -13 -13 -14 -15 -15 -15 -16 -16 -16 -17 -17 -17 -16 -17 -17 -16 -16 -15 -14 -13 -12 -12 -11
-11 -11 -12 -14 -16 -25 -28 -28 -27 -27 -18 -14 -14 -14 -14 -14 -14 -15 -16 -18 -17 -17 -17 -17 -17 -17 -16 -16 -16 -17 -17 -16 -15 -14 -14 -13 -12 -11
-11 -12 -13 -14 -21 -22 -16 -22 -19 -15 -14 -14 -15 -15 -15 -15 -16 -16 -16 -16 -17 -17 -17 -17 -17 -17 -16 -16 -16 -16 -15 -17 -16 -14 -15 -14 -13 -12
-13 -14 -17 -19 -18 -15 -15 -14 -15 -15 -15 -16 -15 -15 -16 -16 -16 -17 -17 -17 -18 -18 -19 -17 -17 -17 -16 -16 -16 -16 -18 -16 -15 -14 -14 -13 -12 -13
-13 -13 -13 -13 -13 -14 -14 -15 -15 -16 -16 -16 -16 -17 -17 -17 -17 -17 -18 -18 -18 -18 -18 -19 -18 -17 -18 -18 -18 -17 -16 -16 -16 -15 -15 -15 -15 -13
-14 -14 -13 -13 -13 -14 -14 -15 -15 -15 -16 -16 -17 -17 -17 -17 -18 -18 -18 -18 -18 -19 -18 -19 -18 -19 -20 -19 -17 -16 -17 -18 -17 -16 -16 -15 -15 -15
-16 -13 -12 -13 -13 -14 -14 -15 -16 -16 -16 -17 -17 -17 -18 -18 -19 -19 -19 -19 -19 -19 -19 -20 -20 -19 -17 -17 -19 -17 -18 -19 -17 -16 -16 -15 -14 -14
-14 -13 -13 -13 -14 -14 -15 -15 -15 -16 -17 -18 -18 -19 -19 -19 -19 -19 -19 -19 -19 -20 -21 -21 -19 -19 -18 -19 -19 -20 -18 -17 -16 -16 -16 -16 -15 -14
-12 -13 -13 -13 -14 -14 -15 -16 -17 -18 -18 -19 -19 -19 -19 -20 -20 -20 -20 -20 -20 -20 -20 -20 -20 -21 -20 -19 -19 -18 -18 -17 -17 -16 -16 -15 -14 -14
-13 -14 -14 -14 -15 -15 -16 -17 -18 -18 -18 -19 -19 -20 -20 -21 -21 -21 -21 -21 -21 -21 -21 -21 -21 -20 -20 -20 -19 -19 -18 -19 -17 -16 -15 -14 -13 -13
-14 -14 -15 -15 -16 -16 -17 -18 -19 -19 -20 -20 -21 -21 -21 -22 -22 -22 -22 -22 -21 -21 -22 -21 -21 -22 -20 -20 -20 -19 -18 -17 -17 -16 -15 -14 -14 -13

GFSNE_850_dewp_198.txt.gz
Dewpoint
-19 -19 -20 -22 -25 -22 -19 -18 -11 -8 -9 -8 -9 -9 -10 -11 -13 -15 -16 -21 -21 -21 -24 -25 -26 -28 -31 -33 -35 -37 -38 -39 -39 -39 -39 -39 -37 -36
-20 -20 -18 -26 -24 -21 -24 -24 -16 -11 -8 -10 -10 -10 -10 -13 -13 -12 -18 -21 -21 -16 -17 -19 -21 -25 -27 -30 -33 -35 -36 -36 -37 -37 -38 -38 -38 -36
-19 -20 -19 -25 -21 -22 -25 -24 -14 -11 -11 -14 -10 -11 -11 -11 -13 -17 -19 -18 -17 -16 -16 -18 -18 -20 -22 -22 -26 -29 -31 -35 -35 -36 -36 -34 -34 -36
-18 -18 -24 -24 -21 -16 -16 -12 -11 -10 -10 -11 -12 -12 -11 -12 -13 -13 -15 -16 -17 -20 -17 -16 -16 -18 -18 -18 -18 -21 -22 -21 -22 -22 -31 -31 -32 -31
-18 -24 -23 -25 -26 -13 -12 -11 -10 -11 -11 -11 -11 -11 -13 -13 -14 -14 -13 -14 -14 -17 -17 -19 -17 -15 -14 -14 -17 -15 -14 -13 -11 -14 -21 -26 -32 -32
-11 -23 -19 -12 -17 -9 -10 -11 -11 -11 -11 -11 -11 -12 -14 -14 -14 -13 -13 -15 -17 -21 -25 -20 -16 -15 -15 -20 -14 -12 -12 -12 -13 -16 -19 -24 -28 -28
-18 -16 -5 -8 -22 -18 -16 -17 -15 -12 -12 -10 -12 -13 -14 -14 -14 -13 -13 -16 -23 -27 -18 -15 -21 -23 -23 -18 -18 -13 -14 -12 -13 -14 -20 -25 -19 -18
-9 -4 -8 -27 -28 -29 -22 -29 -31 -26 -31 -26 -27 -22 -22 -17 -13 -13 -15 -21 -21 -24 -20 -24 -24 -16 -16 -14 -16 -15 -12 -13 -13 -19 -18 -12 -12 -12
-5 -11 -24 -25 -29 -31 -32 -32 -33 -32 -28 -25 -27 -26 -21 -18 -16 -19 -23 -21 -19 -20 -15 -16 -18 -14 -14 -15 -14 -12 -15 -22 -19 -12 -12 -13 -16 -15
-12 -9 -13 -18 -22 -26 -28 -30 -30 -24 -22 -18 -22 -21 -22 -22 -21 -20 -18 -17 -17 -15 -14 -14 -18 -16 -14 -15 -20 -25 -23 -14 -13 -15 -15 -13 -12 -12
-9 -15 -16 -15 -20 -23 -26 -29 -30 -27 -18 -16 -16 -18 -25 -23 -16 -14 -15 -15 -15 -14 -14 -16 -16 -16 -17 -20 -24 -20 -14 -15 -17 -14 -14 -13 -12 -12
-9 -11 -18 -17 -18 -22 -26 -28 -31 -26 -27 -19 -19 -29 -19 -15 -14 -14 -13 -14 -14 -15 -15 -17 -17 -17 -16 -18 -18 -21 -20 -19 -15 -15 -14 -14 -13 -13
-12 -12 -14 -14 -15 -17 -22 -28 -31 -30 -25 -28 -25 -15 -14 -14 -14 -14 -14 -14 -14 -16 -18 -17 -17 -16 -17 -16 -16 -18 -18 -17 -18 -18 -19 -17 -14 -13
-12 -12 -12 -12 -13 -15 -20 -28 -28 -29 -27 -18 -14 -14 -14 -16 -14 -15 -17 -17 -17 -17 -17 -17 -17 -16 -17 -17 -17 -17 -17 -17 -16 -18 -19 -16 -14 -15
-13 -11 -11 -13 -13 -15 -24 -20 -18 -17 -16 -14 -15 -16 -16 -16 -16 -17 -18 -17 -18 -18 -18 -18 -18 -19 -17 -17 -17 -17 -17 -17 -20 -19 -17 -16 -15 -14
-14 -12 -12 -12 -14 -19 -15 -15 -15 -15 -15 -15 -15 -15 -16 -16 -18 -18 -16 -18 -18 -18 -20 -19 -18 -19 -17 -17 -18 -18 -20 -19 -19 -16 -15 -16 -19 -18
-18 -18 -15 -16 -14 -13 -13 -13 -13 -14 -15 -15 -15 -15 -16 -18 -17 -18 -18 -19 -20 -19 -19 -19 -19 -18 -19 -20 -21 -20 -18 -16 -16 -16 -19 -20 -18 -18
-15 -13 -14 -13 -12 -13 -14 -14 -15 -14 -14 -15 -15 -17 -18 -18 -18 -19 -20 -20 -19 -19 -18 -19 -19 -20 -21 -20 -18 -17 -18 -18 -21 -21 -19 -18 -17 -17
-13 -14 -13 -12 -12 -14 -15 -15 -14 -14 -15 -15 -16 -18 -18 -18 -20 -20 -20 -19 -20 -19 -19 -20 -21 -20 -19 -19 -19 -20 -19 -19 -18 -18 -18 -17 -17 -17
-18 -15 -14 -13 -14 -15 -14 -14 -14 -15 -16 -17 -18 -19 -19 -19 -19 -19 -20 -21 -20 -20 -21 -21 -20 -20 -20 -20 -20 -21 -19 -19 -19 -18 -18 -18 -17 -17
-13 -13 -15 -13 -13 -13 -14 -15 -16 -16 -17 -18 -19 -18 -19 -19 -20 -21 -20 -21 -21 -22 -21 -21 -21 -21 -21 -21 -20 -20 -21 -20 -19 -18 -18 -17 -17 -16
-13 -13 -13 -14 -15 -15 -15 -16 -17 -18 -18 -18 -19 -19 -20 -21 -21 -21 -21 -22 -22 -22 -22 -22 -22 -22 -21 -21 -21 -21 -21 -22 -20 -18 -18 -17 -16 -15
-14 -14 -14 -14 -15 -16 -16 -16 -17 -17 -18 -20 -20 -21 -21 -21 -22 -22 -22 -23 -22 -23 -23 -23 -23 -22 -22 -22 -22 -21 -21 -20 -20 -19 -18 -17 -17 -16

GFSNE_850_dewp_201.txt.gz
Dewpoint
-8 -10 -13 -14 -16 -19 -21 -20 -14 -11 -8 -8 -8 -8 -9 -10 -10 -12 -17 -18 -20 -23 -22 -22 -19 -24 -28 -29 -28 -28 -29 -30 -32 -33 -34 -34 -34 -34
-11 -12 -12 -17 -20 -23 -25 -25 -26 -18 -8 -8 -9 -9 -10 -11 -11 -14 -16 -17 -18 -18 -18 -16 -17 -23 -26 -28 -27 -27 -26 -27 -30 -32 -32 -33 -33 -35
-8 -9 -16 -18 -20 -19 -12 -25 -24 -22 -13 -9 -9 -10 -11 -11 -12 -13 -15 -16 -19 -17 -16 -18 -20 -24 -26 -25 -23 -22 -22 -24 -24 -27 -30 -31 -32 -32
-6 -13 -17 -18 -14 -16 -21 -19 -22 -19 -16 -15 -14 -12 -12 -12 -12 -13 -14 -15 -18 -19 -20 -21 -23 -24 -27 -24 -23 -19 -22 -18 -15 -22 -24 -27 -32 -33
-13 -16 -16 -10 -6 -18 -17 -17 -7 -16 -13 -14 -15 -15 -12 -12 -13 -14 -14 -16 -19 -22 -22 -25 -30 -31 -28 -26 -20 -21 -23 -16 -14 -14 -14 -22 -29 -32
-14 -14 -12 -7 -10 -16 -14 -8 -15 -15 -15 -15 -16 -14 -14 -14 -14 -15 -17 -17 -21 -23 -25 -30 -30 -29 -26 -21 -23 -23 -20 -15 -14 -14 -18 -14 -20 -30
-12 -10 -10 -4 -7 -7 -3 -7 -14 -14 -16 -17 -15 -15 -14 -15 -16 -20 -22 -24 -26 -28 -28 -29 -29 -27 -26 -23 -21 -17 -19 -22 -13 -12 -12 -17 -22 -15
-3 -4 -4 -6 -3 -3 -12 -16 -17 -16 -18 -18 -17 -19 -23 -25 -26 -26 -23 -26 -26 -29 -24 -28 -27 -24 -21 -19 -19 -17 -22 -19 -18 -20 -22 -12 -12 -13
-4 -5 -6 -4 -4 -9 -19 -24 -28 -30 -34 -33 -31 -28 -27 -25 -25 -27 -27 -26 -24 -22 -19 -22 -24 -22 -21 -20 -22 -25 -27 -22 -16 -13 -13 -13 -13 -13
-5 -5 -5 -7 -11 -9 -7 -13 -25 -28 -28 -28 -27 -26 -26 -25 -28 -27 -23 -20 -19 -20 -17 -17 -21 -20 -20 -23 -26 -25 -19 -14 -17 -20 -18 -16 -13 -13
-6 -6 -7 -7 -7 -7 -9 -23 -26 -29 -31 -31 -30 -26 -22 -27 -25 -16 -17 -15 -15 -15 -16 -15 -17 -18 -19 -21 -21 -22 -22 -24 -21 -15 -15 -14 -14 -14
-7 -8 -9 -8 -8 -14 -18 -22 -28 -31 -32 -29 -24 -23 -27 -23 -16 -15 -14 -14 -13 -14 -15 -15 -17 -17 -17 -18 -18 -18 -20 -24 -17 -16 -15 -15 -15 -14
-8 -8 -9 -10 -15 -16 -17 -21 -27 -30 -31 -30 -30 -29 -20 -18 -16 -15 -15 -15 -14 -15 -17 -16 -17 -17 -16 -17 -17 -17 -17 -20 -20 -20 -18 -19 -22 -15
-8 -9 -10 -12 -13 -14 -15 -19 -28 -31 -29 -28 -22 -19 -19 -18 -17 -17 -17 -17 -18 -17 -16 -18 -18 -17 -18 -18 -17 -18 -17 -17 -19 -23 -23 -21 -19 -17
-10 -12 -11 -12 -12 -13 -15 -23 -23 -19 -19 -18 -19 -17 -17 -16 -16 -16 -16 -20 -18 -18 -19 -19 -19 -20 -18 -18 -18 -18 -19 -22 -24 -21 -18 -18 -17 -16
-12 -13 -13 -12 -12 -13 -18 -17 -16 -15 -15 -15 -15 -15 -15 -15 -16 -17 -19 -20 -19 -20 -22 -22 -21 -19 -18 -18 -19 -21 -23 -21 -19 -18 -17 -17 -20 -22
-13 -13 -13 -13 -14 -17 -16 -15 -14 -14 -14 -14 -14 -14 -15 -15 -17 -19 -20 -20 -20 -21 -21 -21 -21 -19 -20 -22 -23 -23 -20 -19 -19 -21 -23 -21 -22 -20
-13 -14 -17 -18 -17 -14 -14 -14 -14 -14 -14 -14 -14 -15 -16 -17 -18 -20 -21 -21 -20 -20 -20 -22 -20 -21 -23 -21 -20 -20 -20 -20 -20 -20 -19 -19 -19 -20
-19 -19 -16 -17 -14 -12 -12 -13 -15 -14 -14 -15 -15 -16 -16 -18 -20 -20 -20 -20 -20 -21 -21 -21 -21 -21 -21 -21 -21 -21 -21 -21 -20 -20 -21 -20 -19 -20
-14 -15 -16 -17 -13 -12 -13 -13 -14 -15 -15 -15 -16 -17 -18 -20 -20 -19 -19 -20 -21 -21 -21 -23 -22 -22 -22 -22 -22 -23 -21 -21 -21 -21 -20 -21 -19 -19
-17 -17 -16 -15 -13 -13 -13 -14 -15 -15 -16 -17 -18 -19 -20 -19 -19 -20 -21 -21 -21 -22 -23 -23 -22 -22 -22 -22 -22 -24 -24 -23 -21 -21 -20 -20 -19 -19
-14 -13 -12 -13 -13 -13 -15 -15 -16 -16 -17 -17 -18 -18 -19 -20 -22 -22 -22 -22 -23 -24 -24 -24 -25 -24 -23 -23 -23 -23 -23 -26 -24 -21 -20 -20 -19 -18
-15 -15 -15 -14 -15 -16 -16 -16 -16 -17 -17 -17 -18 -19 -23 -23 -23 -23 -24 -26 -26 -26 -25 -25 -24 -25 -24 -24 -23 -23 -23 -23 -22 -22 -22 -20 -19 -19

GFSNE_850_dewp_204.txt.gz
Dewpoint
-2 -3 -5 -6 -7 -8 -8 -7 -9 -7 -7 -7 -8 -8 -8 -8 -9 -10 -11 -15 -18 -19 -20 -21 -22 -23 -25 -26 -28 -30 -30 -31 -29 -29 -29 -28 -29 -29
-2 -3 -4 -4 -6 -6 -4 -7 -8 -10 -8 -8 -8 -8 -8 -9 -10 -11 -11 -14 -17 -18 -19 -20 -22 -21 -24 -27 -29 -31 -30 -29 -30 -31 -30 -28 -28 -28
-4 -4 -3 -6 -6 -7 -10 -16 -15 -15 -11 -9 -8 -8 -10 -11 -11 -11 -12 -14 -16 -17 -17 -17 -18 -20 -23 -27 -31 -30 -30 -30 -32 -31 -29 -28 -27 -28
-1 0 -0 -5 -7 -7 -17 -12 -6 -3 -8 -10 -9 -10 -11 -11 -11 -12 -13 -14 -15 -15 -16 -17 -19 -22 -27 -30 -28 -29 -29 -32 -30 -29 -27 -25 -25 -27
-0 -0 -1 -2 -1 -12 -13 -5 -4 -12 -16 -14 -10 -10 -11 -12 -12 -13 -14 -14 -15 -16 -18 -20 -23 -28 -29 -29 -30 -30 -32 -29 -27 -26 -24 -24 -25 -25
-1 -2 -2 -3 -8 -13 -8 -6 -5 -9 -7 -7 -6 -13 -13 -12 -12 -13 -14 -15 -17 -20 -25 -27 -29 -29 -31 -30 -30 -28 -27 -26 -26 -27 -21 -25 -27 -30
-1 -2 -3 -5 -10 -11 -8 -12 -5 -7 -5 -5 -12 -13 -12 -13 -13 -14 -18 -23 -27 -28 -28 -30 -31 -32 -31 -28 -28 -28 -29 -29 -30 -31 -31 -32 -32 -27
-2 -3 -6 -10 -12 -14 -9 -5 -4 -4 -10 -12 -13 -15 -15 -16 -20 -25 -28 -27 -28 -29 -27 -30 -28 -28 -26 -27 -28 -29 -30 -32 -33 -33 -20 -13 -14 -14
-7 -9 -11 -11 -6 -5 -5 -5 -6 -8 -8 -15 -16 -14 -20 -29 -28 -26 -26 -28 -27 -26 -22 -25 -25 -24 -23 -25 -27 -30 -33 -33 -23 -15 -21 -27 -26 -20
-10 -11 -8 -5 -5 -5 -6 -7 -7 -10 -14 -9 -12 -26 -25 -25 -25 -27 -28 -24 -23 -20 -17 -17 -22 -21 -22 -26 -29 -30 -28 -27 -29 -29 -26 -18 -15 -14
-10 -6 -5 -6 -6 -6 -6 -7 -7 -8 -14 -27 -30 -29 -27 -26 -26 -27 -20 -17 -17 -17 -18 -15 -18 -20 -22 -24 -23 -24 -23 -24 -27 -26 -16 -15 -15 -15
-5 -5 -6 -6 -7 -7 -8 -9 -18 -23 -28 -30 -30 -26 -23 -24 -27 -18 -17 -16 -15 -15 -16 -16 -19 -19 -17 -19 -18 -18 -18 -22 -27 -29 -26 -19 -16 -16
-6 -7 -7 -7 -8 -8 -15 -20 -23 -26 -29 -30 -31 -29 -27 -26 -19 -18 -17 -17 -16 -17 -18 -18 -17 -17 -17 -17 -17 -19 -20 -20 -26 -31 -31 -30 -28 -17
-6 -7 -7 -8 -9 -15 -14 -15 -19 -27 -30 -30 -29 -26 -21 -21 -20 -19 -18 -18 -17 -18 -20 -18 -17 -18 -20 -19 -19 -19 -22 -24 -25 -28 -29 -26 -25 -22
-7 -7 -8 -10 -13 -13 -13 -15 -23 -25 -23 -21 -20 -19 -18 -18 -17 -17 -16 -16 -18 -20 -21 -21 -22 -22 -20 -20 -19 -20 -25 -28 -29 -27 -24 -21 -18 -18
-8 -9 -11 -12 -12 -12 -13 -16 -20 -18 -17 -17 -17 -16 -16 -15 -15 -16 -16 -17 -19 -21 -24 -24 -24 -23 -24 -21 -21 -24 -28 -26 -25 -22 -19 -21 -25 -27
-8 -12 -12 -12 -11 -12 -13 -17 -15 -16 -16 -15 -15 -16 -16 -15 -15 -15 -16 -18 -21 -22 -23 -25 -27 -27 -25 -24 -26 -28 -28 -24 -21 -23 -21 -23 -22 -24
-11 -12 -13 -12 -13 -15 -17 -14 -14 -15 -15 -15 -15 -14 -14 -14 -15 -16 -19 -20 -21 -23 -23 -25 -26 -26 -28 -29 -28 -25 -25 -23 -23 -24 -21 -21 -20 -26
-11 -12 -13 -14 -17 -17 -14 -13 -14 -14 -14 -14 -14 -14 -14 -15 -17 -19 -21 -22 -22 -22 -24 -25 -26 -25 -23 -22 -25 -25 -25 -23 -22 -21 -21 -22 -22 -24
-13 -15 -18 -17 -17 -16 -15 -13 -13 -13 -14 -14 -14 -15 -16 -17 -19 -20 -21 -21 -22 -24 -25 -26 -27 -26 -22 -22 -23 -26 -28 -22 -22 -22 -22 -22 -22 -21
-17 -15 -14 -14 -16 -17 -15 -13 -13 -13 -14 -14 -16 -16 -17 -18 -19 -19 -21 -23 -23 -24 -25 -27 -28 -27 -26 -25 -24 -26 -27 -27 -22 -23 -23 -22 -22 -21
-15 -16 -16 -15 -15 -15 -14 -13 -14 -15 -15 -16 -16 -17 -18 -18 -19 -21 -23 -24 -26 -27 -28 -28 -28 -27 -26 -25 -25 -26 -26 -27 -28 -27 -23 -22 -21 -21
-19 -15 -14 -14 -14 -14 -14 -15 -14 -14 -15 -16 -18 -19 -19 -20 -22 -22 -25 -27 -27 -29 -28 -28 -27 -27 -26 -26 -25 -24 -26 -27 -26 -25 -26 -24 -22 -21